Regional Weather Roundup
Issued by NWS

Home | Current Version | Previous Version | Graphics & Text | Print | Product List | Glossary On
Versions: 1 2 3 4 5 6 7 8 9 10 11 12 13 14 15 16 17 18 19 20 21 22 23 24 25 26 27 28 29 30 31 32 33 34 35 36 37 38 39 40 41 42 43 44 45 46 47 48 49 50
000
ASUS45 KBOU 280707
RWRCO

WEATHER ROUNDUP FOR COLORADO
NATIONAL WEATHER SERVICE DENVER/BOULDER CO
100 AM MDT THU AUG 28 2014

NOTE: "FAIR" INDICATES FEW OR NO CLOUDS BELOW 12000 FEET WITH NO
SIGNIFICANT WEATHER AND/OR OBSTRUCTIONS TO VISIBILITY.

COZ001>005-013-030-031-280800-
...NORTHWEST COLORADO...

CITY           SKY/WX    TMP DP  RH WIND       PRES   REMARKS
CRAIG          CLOUDY    53  50  89 W7        30.29R
HAYDEN         CLOUDY    52  46  82 CALM      30.29S
MEEKER         LGT RAIN  51  49  92 CALM      30.30S
MOUNT WERNER   NOT AVBL
STEAMBOAT SPGS CLOUDY    50  48  93 CALM      30.31S
WALDEN         MOCLDY    43  39  87 SE3       30.33S
$$

COZ006>008-011-280800-
...WEST CENTRAL VALLEYS...

CITY           SKY/WX    TMP DP  RH WIND       PRES   REMARKS
GRAND JUNCTION CLOUDY    58  56  93 CALM      30.24F
MONTROSE       CLOUDY    54  48  80 SE3       30.30F
EAGLE          CLOUDY    54  46  76 CALM      30.32S
RIFLE          CLOUDY    55  52  89 NE3       30.26F
DELTA          RAIN      58  53  82 CALM      30.27S
NUCLA          NOT AVBL
$$

COZ017>023-064>068-280800-
...SOUTHWEST COLORADO...

CITY           SKY/WX    TMP DP  RH WIND       PRES   REMARKS
DURANGO        CLEAR     48  43  82 CALM      30.31F
CORTEZ         CLEAR     47  46  97 NE3       30.30S
PAGOSA SPRINGS CLEAR     46  39  78 CALM      30.36S
TELLURIDE      CLOUDY    45  43  93 SE3       30.44F
WOLF CREEK PAS CLEAR     34  32  93 SW10      30.55S WCI  26
$$

COZ009-010-012-014-032>034-037-058>063-280800-
...CENTRAL COLORADO...

CITY           SKY/WX    TMP DP  RH WIND       PRES   REMARKS
ASPEN          CLOUDY    49  46  90 CALM      30.35F
BUENA VISTA    PTCLDY    52  36  55 NW6       30.32S
COPPER MTN     SNOW      37  34  87 W12       30.52S VSB<1/4
BERTHOUD PASS  FOG       32  30  93 N20       30.52F VSB<1/4 WCI  20
COTTONWOOD PAS PTCLDY    50  34  53 W15G24    30.39F
GUNNISON       CLOUDY    48  39  71 N6        30.37F
KREMMLING      CLOUDY    52  41  66 W5        30.33F
LEADVILLE      LGT RAIN  41  37  86 N8        30.41F
MONARCH PASS   FOG       34  32  93 W28G37    30.60S VSB 1/2 WCI  20
SALIDA         NOT AVBL
SUNLIGHT       RAIN      43  41  93 CALM      30.48F VSB 1/2
WILKERSON PASS NOT AVBL
$$

COZ069>075-280800-
...SAN LUIS VALLEY/SANGRE DE CRISTO MOUNTAINS...

CITY           SKY/WX    TMP DP  RH WIND       PRES   REMARKS
ALAMOSA        CLEAR     44  38  79 CALM      30.33S
LA VETA PASS   NOT AVBL
SAGUACHE       PTCLDY    46  39  76 NW12      30.36S
$$

COZ035-036-038>040-280800-
...NORTHERN COLORADO FRONT RANGE...

CITY           SKY/WX    TMP DP  RH WIND       PRES   REMARKS
DENVER INTL AP PTCLDY    54  52  93 SE7       30.17F
DMNS CITY PARK   N/A     54  52  94 SW3       30.17F
AURORA         PTCLDY    54  52  94 SW5       30.18F
FRONT RANGE AP PTCLDY    55  54  94 CALM      30.18F
ERIE MUNI ARPT PTCLDY    56  53  90 S6        30.15F
BOULDER MUN AP PTCLDY    57  54  88 SW6       30.17S
CENTENNIAL     PTCLDY    53  49  86 W3        30.19S
BROOMFIELD     PTCLDY    55  52  88 S3        30.19F
FORT COLLINS   MOCLDY    57  54  88 S3        30.16F
LONGMONT       MOCLDY    57  54  89 CALM      30.17F
$$

COZ041-046-047-076>085-087-088-280800-
...PIKES PEAK/PALMER DIVIDE AND SOUTHERN FOOTHILLS...

CITY           SKY/WX    TMP DP  RH WIND       PRES   REMARKS
COLO. SPRINGS  PTCLDY    56  50  80 N13       30.20S
A. F. ACADEMY  CLEAR     52  45  77 N9        30.22F
ELLICOTT       PTCLDY    55  51  86 N7        30.18R
FALCON         CLEAR     52  50  90 N8        30.24S
FORT CARSON    CLEAR     56  48  75 N10       30.18R
LIMON          MOCLDY    57  54  89 N12       30.14S
MONUMENT HILL  PTCLDY    50  48  93 N5        30.24S
TRINIDAD       CLEAR     61  39  44 NW8       30.18R
$$

COZ042>045-048>051-090-091-280800-
...NORTHEAST COLORADO...

CITY           SKY/WX    TMP DP  RH WIND       PRES   REMARKS
GREELEY ARPT   CLOUDY    61  48  63 NE6       30.14F
AKRON          CLOUDY    58  56  93 N10       30.10F
BURLINGTON     CLOUDY    60  58  92 N12       30.09R
WRAY           LGT RAIN N/A N/A N/A NW12      30.07F
STERLING       CLOUDY    64  63  94 CALM      30.08F
HOLYOKE        CLOUDY    63  61  94 SW8G18    30.10R
FORT MORGAN    CLOUDY    60  56  88 W7        30.11R
$$

COZ086-089-092>099-280800-
...SOUTHEAST COLORADO...

CITY           SKY/WX    TMP DP  RH WIND       PRES   REMARKS
PUEBLO         CLEAR     64  52  64 N14       30.12R
LA JUNTA       MOCLDY    67  56  67 N18G29    30.07R
LAMAR          PTCLDY    67  59  75 N20G30    29.99R
SPRINGFIELD      N/A     64  62  93 SW8       30.04S
$$


USA.gov is the U.S. government's official web portal to all federal, state and local government web resources and services.